Theta_e
336 334 334 333 333 331 330 331 330 331 332 332 333 334 334 335 335 336 336 338 334 335 335 334 335 335 332 332 333 332 332 332 331 331 330 329 329 328 328 328 328 328 328
336 335 334 333 333 332 332 331 331 331 332 331 332 332 332 331 332 334 334 336 336 334 334 335 335 334 334 333 333 333 333 334 334 334 334 334 333 332 331 331 330 330 330
337 336 334 333 332 332 333 332 331 332 332 332 333 332 332 331 330 331 332 333 334 335 334 335 335 335 335 334 333 333 333 332 333 333 333 333 334 334 335 334 333 333 332
337 337 334 333 331 332 332 331 332 331 331 331 331 331 330 331 330 331 330 330 331 332 332 331 330 332 334 333 333 332 332 332 332 332 332 333 333 333 333 333 333 333 333
335 335 333 331 332 332 331 330 330 330 329 330 329 330 330 330 330 330 330 330 331 332 331 329 329 329 327 329 331 332 333 333 333 332 332 332 332 332 332 331 330 332 333
334 335 333 331 332 332 331 330 330 330 330 328 328 327 327 328 328 328 328 328 327 328 329 331 331 333 332 331 331 332 332 333 333 333 333 332 332 332 332 332 332 331 332
335 334 332 331 333 331 330 330 331 331 331 330 330 329 329 330 332 332 331 332 331 331 331 334 336 335 334 334 333 331 331 331 332 332 332 332 332 331 330 331 331 331 333
335 335 333 330 331 331 331 331 331 331 330 330 331 329 332 331 331 334 335 333 333 333 333 335 336 336 336 335 336 335 332 329 330 331 331 331 332 331 330 330 332 332 333
336 336 334 333 331 331 330 332 332 332 329 330 332 331 334 334 330 332 337 336 335 336 336 335 335 336 337 337 336 335 330 328 329 330 330 330 331 330 330 331 334 334 335
336 336 335 334 334 333 332 331 332 332 332 330 333 334 334 332 334 335 333 335 336 336 336 335 334 336 336 335 335 334 334 329 329 330 330 331 331 330 330 335 335 336 336
336 336 336 336 335 335 334 333 333 334 333 333 331 333 334 334 335 337 336 333 333 337 337 337 336 336 336 337 336 336 334 329 331 331 330 330 331 331 334 335 335 335 334
334 335 335 336 337 335 335 334 334 334 334 333 333 332 332 332 334 334 338 337 336 335 336 338 339 338 338 338 337 336 334 332 330 330 329 330 332 333 336 335 335 333 332
334 334 334 335 336 336 335 334 334 334 334 334 334 332 332 332 331 331 334 337 339 337 338 338 339 339 338 338 338 337 336 333 331 330 330 331 333 336 336 336 334 333 331
336 335 334 334 335 334 334 334 335 334 334 335 334 334 333 332 333 335 336 337 343 341 339 340 340 341 340 339 339 337 336 333 332 331 331 332 335 336 336 335 334 332 330
337 336 336 335 335 335 334 334 335 334 334 335 336 336 335 335 336 337 338 339 340 345 344 340 340 341 342 339 338 337 336 335 334 332 332 334 336 337 336 335 334 331 329
330 337 337 337 337 337 336 336 336 336 336 337 337 337 338 338 338 339 339 340 340 341 345 340 341 341 342 340 338 337 337 334 334 333 333 335 336 336 336 334 331 329 327
309 320 335 338 338 338 338 338 338 338 338 337 338 338 339 339 339 339 340 339 339 339 341 340 340 341 341 341 340 336 335 335 334 334 333 333 334 334 333 332 329 328 326
305 306 309 324 335 338 338 337 338 339 338 337 338 338 338 339 340 340 340 341 340 339 339 340 339 340 339 340 340 338 335 333 333 334 334 334 334 333 332 329 328 327 325
302 305 304 309 316 332 337 337 338 339 339 340 340 339 337 336 337 337 338 338 338 339 338 339 338 338 338 339 335 333 331 331 331 332 332 333 333 332 330 328 325 325 323
300 300 303 305 308 313 331 331 335 338 339 337 337 336 335 335 335 336 337 337 338 337 337 337 336 335 335 336 330 328 326 330 330 330 330 330 330 329 328 326 324 322 322
299 300 301 303 306 308 312 307 309 327 333 333 332 331 331 329 327 327 333 337 339 338 337 336 335 334 333 327 327 330 325 326 325 326 326 325 325 323 321 320 320 319 316
297 298 299 300 303 306 305 304 302 306 322 331 331 330 330 330 328 326 327 331 337 338 338 337 336 335 335 330 331 331 326 318 314 323 321 317 320 317 319 318 318 318 318
296 296 297 299 301 303 303 300 299 302 312 323 328 331 332 332 332 332 332 331 335 336 337 335 335 336 337 337 332 332 328 323 325 326 320 313 312 310 312 315 314 313 311
296 296 296 298 299 301 300 300 298 303 306 315 322 323 325 327 328 328 329 330 330 330 331 333 334 334 333 334 336 334 332 327 323 321 319 306 308 306 307 307 308 308 308
294 295 296 296 297 299 298 299 300 302 305 307 312 319 321 320 322 321 319 318 319 320 322 325 328 329 329 330 329 327 327 321 306 311 313 314 303 302 301 302 305 304 304
294 294 294 295 295 296 298 298 298 300 302 304 307 310 307 310 313 314 314 315 314 315 315 317 319 321 321 321 323 326 323 320 313 300 308 309 300 300 297 298 301 302 302
Wind_Speed
20 21 20 20 20 19 20 19 18 18 17 17 16 16 15 15 15 14 13 14 14 12 13 13 16 18 17 16 16 16 16 16 16 17 17 17 18 18 18 19 18 18 18
22 22 21 22 21 21 20 20 19 18 18 17 18 18 18 18 18 18 17 16 19 19 18 17 17 19 21 21 21 20 20 20 19 19 19 19 19 20 20 20 20 20 20
23 22 22 23 22 21 21 20 20 19 18 18 19 19 19 20 21 21 21 20 19 21 21 22 22 22 22 23 25 25 24 23 23 22 22 22 21 21 21 21 21 21 20
25 24 23 23 22 21 21 22 21 21 21 20 20 20 20 21 22 22 22 23 22 22 22 24 25 27 28 27 27 27 27 26 25 24 24 24 23 22 22 22 21 20 19
28 26 25 23 22 22 22 22 22 22 21 21 21 21 21 22 22 23 24 24 24 25 24 24 27 28 28 28 28 28 28 27 26 25 24 24 23 22 22 21 21 20 20
29 29 27 25 24 24 24 23 23 22 22 21 20 22 22 23 24 25 26 26 26 26 26 25 23 24 25 27 30 30 29 29 28 27 26 25 24 24 25 25 24 24 23
29 31 30 28 27 27 27 25 24 24 23 21 19 22 24 25 27 29 28 27 27 26 25 25 24 23 23 25 25 28 29 30 29 28 28 27 25 24 24 25 25 26 26
34 34 34 32 30 29 28 28 26 25 24 22 18 18 11 17 25 26 27 28 28 25 24 24 24 23 23 22 23 26 27 28 28 28 27 27 27 26 26 25 26 25 25
35 36 33 33 31 31 30 30 29 28 26 23 24 18 7 8 12 14 18 19 19 18 17 17 20 19 17 18 19 21 24 25 28 29 28 27 27 26 26 25 25 24 22
39 38 40 37 35 33 33 31 30 30 28 26 21 27 30 22 6 8 13 15 15 18 18 17 15 16 19 21 22 23 24 23 22 24 25 25 26 27 26 25 24 21 19
38 38 37 37 38 37 34 33 30 30 31 30 28 22 22 26 27 19 14 18 21 21 20 21 22 23 21 22 23 24 27 26 25 25 25 26 28 27 26 24 21 19 18
33 36 37 38 38 37 37 35 32 32 31 30 30 28 28 20 20 20 13 19 20 27 24 24 23 23 22 23 24 26 29 29 28 29 30 28 27 27 25 23 21 19 19
29 31 33 35 37 37 35 33 33 33 34 33 33 32 30 31 29 26 22 20 16 25 23 24 23 23 23 22 22 25 26 27 28 29 29 28 28 27 26 25 22 21 21
31 29 31 34 37 37 35 35 34 34 33 34 35 33 32 30 29 28 28 23 14 16 25 25 23 23 21 22 21 22 21 25 25 26 27 28 29 30 29 25 25 23 23
31 30 30 32 33 35 37 36 37 37 37 35 34 34 33 31 30 30 28 27 24 15 15 25 25 21 17 18 20 19 19 21 23 24 26 28 31 31 29 28 26 26 24
24 27 30 32 33 34 35 35 34 34 34 34 33 32 31 30 30 29 29 28 27 22 14 27 27 25 19 19 19 22 20 23 26 24 24 27 31 31 31 29 28 28 27
39 25 20 31 34 33 33 33 33 33 33 33 32 30 30 27 26 25 25 26 26 25 15 27 29 29 27 25 23 22 22 25 25 27 28 27 31 32 33 32 30 30 30
35 36 34 26 17 33 32 34 33 32 32 30 31 28 26 22 22 23 24 26 24 25 24 21 26 26 27 25 22 23 23 28 29 29 30 30 31 34 35 35 34 33 32
38 36 37 34 32 23 25 37 34 34 33 31 29 27 24 22 23 23 24 27 28 26 25 25 26 25 27 24 19 23 27 29 30 31 30 32 34 34 36 38 36 36 34
32 38 35 32 32 32 22 18 15 24 23 24 26 25 20 18 13 17 23 30 26 24 23 23 24 24 24 25 19 19 24 30 32 31 33 34 36 38 40 40 38 37 34
32 30 31 31 27 26 25 32 28 18 27 29 31 29 31 29 22 20 33 31 26 23 24 22 21 21 20 19 18 20 21 22 29 31 33 34 35 38 40 38 38 38 36
33 33 32 28 31 26 26 30 31 26 22 22 34 24 37 34 36 41 47 43 39 31 24 24 25 22 26 23 24 21 21 10 4 28 32 35 38 41 43 44 43 43 40
35 37 36 32 30 30 30 33 31 28 21 17 15 10 17 19 26 26 29 36 38 37 42 40 27 28 26 26 25 24 24 22 22 20 22 17 33 38 43 46 44 42 35
32 34 32 34 34 32 32 33 36 24 23 20 16 16 8 16 13 16 19 25 31 31 24 25 32 39 35 31 26 32 30 32 27 24 23 9 24 30 37 38 40 37 35
26 31 30 36 35 39 37 35 33 29 23 24 19 16 13 13 14 15 18 22 29 34 29 32 37 38 37 38 35 29 21 16 7 13 27 17 15 22 25 33 38 31 30
27 27 29 31 34 35 36 31 31 31 28 21 25 21 19 23 24 21 21 22 21 28 28 29 29 32 31 33 33 29 23 19 11 2 21 22 16 17 5 21 33 32 32
Wind_Direction
202 200 201 199 202 203 207 210 214 220 225 228 232 235 238 241 244 247 251 261 259 256 257 255 253 254 256 259 262 265 266 267 267 268 269 270 271 272 273 273 275 277 280
210 207 206 206 208 207 209 213 216 221 226 231 236 238 241 244 247 248 251 256 265 258 257 258 259 258 259 260 263 267 268 269 269 269 270 271 272 272 272 273 274 275 277
215 213 213 213 213 213 212 214 218 223 228 232 237 240 243 246 248 250 252 255 259 268 267 260 259 259 260 261 265 268 269 270 270 270 272 273 273 274 274 272 272 271 271
218 218 219 220 216 216 216 216 218 222 228 232 238 242 246 249 250 251 252 253 255 257 263 268 264 258 259 261 263 265 267 267 269 269 269 270 271 271 270 269 267 267 270
220 222 223 225 221 220 221 220 222 224 228 234 238 243 247 250 252 253 253 254 255 255 257 261 264 266 259 257 259 260 262 263 265 267 267 268 269 270 269 269 269 268 270
222 222 226 227 223 224 224 223 225 226 230 235 241 244 248 251 253 252 253 255 256 256 256 257 256 262 265 259 257 258 259 260 262 263 265 265 266 265 265 267 268 268 267
223 221 224 224 224 225 226 225 225 226 228 231 242 249 254 254 254 253 254 255 255 255 254 253 252 254 258 264 265 259 256 258 261 264 264 263 263 263 263 262 262 263 263
221 221 221 222 223 227 228 225 224 228 232 227 231 243 258 259 248 248 251 251 252 253 253 252 250 250 252 252 256 264 262 256 255 258 262 261 258 258 258 259 261 262 260
223 220 223 224 223 222 227 226 223 223 230 229 227 235 230 245 268 248 243 244 244 243 242 245 253 248 248 248 250 254 262 261 252 251 256 259 257 256 255 256 257 257 253
226 224 217 219 224 226 226 226 226 227 225 230 226 232 245 263 269 275 233 235 238 250 254 250 244 240 259 259 260 256 254 268 257 246 249 254 254 251 250 251 251 249 241
231 230 227 225 220 221 229 229 227 225 227 231 233 229 240 247 250 255 268 262 257 251 253 255 256 258 259 260 260 261 266 265 261 252 254 261 253 246 245 246 243 240 239
237 234 232 229 228 227 226 227 229 231 232 236 239 242 238 239 242 241 251 263 264 269 267 266 261 259 258 258 258 257 256 265 262 261 263 258 247 241 240 237 236 237 237
242 239 233 231 233 234 234 232 230 229 229 231 234 237 242 242 246 250 252 258 265 268 267 265 268 266 264 259 258 255 260 260 260 261 259 252 242 237 235 237 234 234 233
249 243 237 232 232 232 233 232 229 230 230 229 231 234 239 245 246 249 255 263 270 270 271 262 260 261 255 259 259 255 255 261 259 257 254 244 237 233 234 233 236 233 233
253 249 243 239 239 234 228 226 226 226 225 225 228 229 233 237 242 244 248 253 260 271 269 273 273 273 248 254 251 251 255 257 264 255 248 239 234 235 235 235 237 233 234
335 267 246 238 239 237 236 230 228 229 229 228 227 228 229 234 241 244 246 247 248 254 268 267 273 276 267 255 255 251 252 256 266 264 252 243 236 236 237 238 238 231 232
348 0 311 248 237 237 236 230 231 230 225 226 230 234 235 237 243 245 245 245 246 244 252 261 263 272 272 261 258 258 253 250 252 256 257 247 233 232 232 235 233 231 231
348 356 352 358 306 239 232 224 230 226 225 217 218 221 225 228 240 245 251 251 247 244 247 256 257 262 268 270 259 257 256 255 252 252 253 248 237 234 233 232 230 228 229
350 348 357 358 356 326 239 222 228 230 221 220 216 213 218 225 233 238 243 246 246 244 246 253 258 254 261 266 251 253 257 266 259 254 250 244 240 240 236 235 235 227 226
344 349 347 348 351 346 329 304 260 234 217 218 216 213 207 208 228 253 262 251 248 249 253 250 257 258 253 253 245 252 257 260 258 255 252 247 242 238 235 234 235 231 227
339 340 344 342 339 345 346 354 356 289 240 234 236 240 252 255 264 274 270 274 260 251 248 245 250 253 245 232 232 259 253 258 256 250 246 244 242 239 237 235 233 228 228
336 339 333 335 331 329 327 335 347 339 313 288 246 255 258 255 253 252 259 264 259 260 254 242 248 245 248 239 246 243 242 229 272 256 243 241 240 238 238 235 233 228 225
331 336 328 324 318 317 318 328 339 336 318 309 305 269 260 246 235 231 251 256 260 261 262 260 259 255 260 255 244 237 228 230 243 254 225 235 238 235 238 240 234 230 223
314 330 320 313 315 305 316 322 329 322 317 312 304 297 304 279 264 257 253 261 266 265 267 271 271 273 268 268 265 248 243 241 245 245 220 207 233 228 234 234 233 229 222
308 304 317 308 309 305 309 324 326 316 312 305 301 298 293 281 278 273 274 272 270 273 273 267 266 270 270 272 272 282 247 209 239 228 218 218 208 219 228 224 230 218 208
306 300 295 297 297 301 308 311 317 309 300 297 294 283 275 284 287 285 275 266 266 276 288 295 288 277 280 280 278 272 262 231 219 264 218 204 197 189 199 223 219 207 203